Weather History for Kalamazoo, MI

Change the Weather History Date:

Sunday, September 1, 2013

  Actual Average Record
Temperature  
Mean Temperature 76 °F 68 °F  
Max Temperature 85 °F 78 °F 100 °F (1953)
Min Temperature 67 °F 57 °F 44 °F (1967)
Degree Days  
Heating Degree Days 0 1  
Month to date heating degree days 0 1  
Since 1 July heating degree days 37 17  
Cooling Degree Days 11 4  
Month to date cooling degree days 11 4  
Year to date cooling degree days 639 615  
Growing Degree Days 26 (Base 50)    
Moisture  
Dew Point 68 °F    
Average Humidity 78    
Maximum Humidity 93    
Minimum Humidity 63    
Precipitation  
Precipitation T in 0.17 in 1.23 in (1950)
Month to date precipitation T 0.17  
Year to date precipitation 29.09 23.76  
Sea Level Pressure  
Sea Level Pressure 29.78 in    
Wind  
Wind Speed 4 mph (SW)    
Max Wind Speed 12 mph    
Max Gust Speed 15 mph    
Visibility 7 miles    
Events Rain    
T = Trace of Precipitation, MM = Missing Value Source: NWS Daily Summary

Daily Weather History Graph

Daily Weather History Graph

Search for Another Location

Airport:

Trip Planner

Search our weather history database for the weather conditions in past years. The results will help you decide how hot, cold, wet, or windy it might be!

Date:

Astronomy

Sep. 01, 2013 Rise Set
Actual Time 7:07 AM EDT 8:15 PM EDT
Civil Twilight 6:38 AM EDT 8:44 PM EDT
Nautical Twilight 6:04 AM EDT 9:18 PM EDT
Astronomical Twilight 5:28 AM EDT 9:54 PM EDT
Moon 3:26 AM EDT (9/1) 5:54 PM EDT (9/1)
Length of Visible Light 14h 05m
Length of Day
13h 07m
Waning Crescent, 14% of the Moon is Illuminated
Sep 1
Waning Crescent
Sep 5
New
Sep 12
First Quarter
Sep 19
Full
Sep 26
Last Quarter

Hourly Weather History & Observations

Time (EDT) Temp. Heat Index Dew Point Humidity Pressure Visibility Wind Dir Wind Speed Gust Speed Precip Events Conditions
12:53 AM 71.1 °F - 66.9 °F 87% 29.83 in 10.0 mi Calm Calm - 0.00 in   Overcast
1:53 AM 70.0 °F - 66.9 °F 90% 29.82 in 10.0 mi ENE 4.6 mph - 0.00 in Rain Light Rain
2:53 AM 70.0 °F - 66.0 °F 87% 29.80 in 10.0 mi Calm Calm - 0.00 in   Overcast
3:53 AM 69.1 °F - 66.0 °F 90% 29.78 in 10.0 mi Calm Calm - N/A   Partly Cloudy
4:46 AM 69.8 °F - 66.2 °F 88% 29.80 in 10.0 mi Calm Calm - N/A   Overcast
4:53 AM 69.1 °F - 66.0 °F 90% 29.79 in 10.0 mi East 4.6 mph - N/A   Overcast
5:53 AM 70.0 °F - 66.9 °F 90% 29.79 in 9.0 mi Calm Calm - N/A   Overcast
6:53 AM 70.0 °F - 66.9 °F 90% 29.79 in 9.0 mi Calm Calm - N/A   Overcast
7:53 AM 70.0 °F - 66.9 °F 90% 29.78 in 3.0 mi Calm Calm - N/A   Overcast
8:53 AM 71.1 °F - 68.0 °F 90% 29.79 in 2.0 mi Calm Calm - N/A   Overcast
9:18 AM 71.6 °F - 69.8 °F 94% 29.79 in 1.0 mi Calm Calm - N/A   Overcast
9:53 AM 72.0 °F - 69.1 °F 91% 29.79 in 1.2 mi Calm Calm - N/A   Overcast
10:46 AM 73.4 °F - 69.8 °F 88% 29.80 in 3.0 mi South 5.8 mph - N/A   Overcast
10:53 AM 73.9 °F - 69.1 °F 85% 29.78 in 2.5 mi SE 4.6 mph - N/A   Haze
11:00 AM 73.4 °F - 69.8 °F 88% 29.80 in 2.5 mi South 6.9 mph - N/A   Haze
11:53 AM 75.9 °F - 69.1 °F 79% 29.80 in 3.0 mi SSW 3.5 mph - N/A   Haze
12:22 PM 78.8 °F - 69.8 °F 74% 29.80 in 4.0 mi South 5.8 mph - N/A   Haze
12:37 PM 78.8 °F - 69.8 °F 74% 29.80 in 4.0 mi SSW 4.6 mph - N/A   Haze
12:53 PM 79.0 °F - 69.1 °F 72% 29.78 in 4.0 mi SW 6.9 mph - N/A   Haze
1:06 PM 78.8 °F - 68.0 °F 69% 29.79 in 10.0 mi SW 5.8 mph - N/A   Overcast
1:53 PM 81.0 °F 84.1 °F 69.1 °F 67% 29.76 in 9.0 mi Variable 4.6 mph - N/A   Overcast
2:53 PM 82.9 °F 86.5 °F 69.1 °F 63% 29.75 in 10.0 mi SSW 5.8 mph - N/A   Mostly Cloudy
3:53 PM 82.9 °F 85.8 °F 68.0 °F 60% 29.75 in 10.0 mi WNW 4.6 mph - N/A   Mostly Cloudy
4:53 PM 82.9 °F 85.8 °F 68.0 °F 60% 29.74 in 10.0 mi West 5.8 mph - N/A   Scattered Clouds
5:53 PM 82.9 °F 87.0 °F 70.0 °F 65% 29.73 in 10.0 mi West 8.1 mph - N/A   Mostly Cloudy
6:53 PM 80.1 °F 82.9 °F 69.1 °F 69% 29.73 in 10.0 mi West 8.1 mph - N/A   Partly Cloudy
7:53 PM 77.0 °F - 68.0 °F 74% 29.75 in 10.0 mi West 6.9 mph - N/A   Clear
8:53 PM 73.0 °F - 66.0 °F 79% 29.75 in 10.0 mi SW 5.8 mph - N/A   Clear
9:53 PM 72.0 °F - 64.9 °F 78% 29.77 in 10.0 mi West 3.5 mph - N/A   Clear
10:53 PM 70.0 °F - 64.9 °F 84% 29.78 in 10.0 mi Variable 3.5 mph - N/A   Mostly Cloudy
11:53 PM 71.1 °F - 64.9 °F 81% 29.75 in 10.0 mi Calm Calm - N/A   Clear